Houston, TX

6:40 PM CDT on August 31, 2016 (GMT -0500)
Hobby

Weather History for KHOU - April, 2013

Change the Weather History Date:

Sunday, April 21, 2013

  Actual Average Record
Temperature  
Mean Temperature 62 °F 71 °F  
Max Temperature 76 °F 81 °F 90 °F (1987)
Min Temperature 47 °F 61 °F 42 °F (1978)
Degree Days  
Heating Degree Days 3 1  
Month to date heating degree days 62 33  
Since 1 July heating degree days 1168 1362  
Cooling Degree Days 0 6  
Month to date cooling degree days 71 105  
Year to date cooling degree days 176 214  
Growing Degree Days 13 (Base 50)    
Moisture  
Dew Point 52 °F    
Average Humidity 68    
Maximum Humidity 89    
Minimum Humidity 46    
Precipitation  
Precipitation 0.00 in 0.12 in 3.76 in (1890)
Month to date precipitation 2.62 2.19  
Year to date precipitation 8.04 12.18  
Sea Level Pressure  
Sea Level Pressure 30.14 in    
Wind  
Wind Speed 5 mph (East)    
Max Wind Speed 14 mph    
Max Gust Speed 18 mph    
Visibility 10 miles    
Events      
T = Trace of Precipitation, MM = Missing Value Source: NWS Daily Summary

Daily Weather History Graph

Daily Weather History Graph

Search for Another Location

Airport or City:

Trip Planner

Search our weather history database for the weather conditions in past years. The results will help you decide how hot, cold, wet, or windy it might be!

Date:

Astronomy

Apr. 21, 2013 Rise Set
Actual Time 6:48 AM CDT 7:51 PM CDT
Civil Twilight 6:23 AM CDT 8:16 PM CDT
Nautical Twilight 5:54 AM CDT 8:46 PM CDT
Astronomical Twilight 5:23 AM CDT 9:16 PM CDT
Moon 3:55 PM CDT (4/21) 3:50 AM CDT (4/21)
Length of Visible Light 13h 53m
Length of Day
13h 03m
Waxing Gibbous, 80% of the Moon is Illuminated
Apr 21
Waxing Gibbous
Apr 25
Full
May 2
Last Quarter
May 9
New
May 17
First Quarter

Hourly Weather History & Observations

Time (CDT) Temp. Dew Point Humidity Pressure Visibility Wind Dir Wind Speed Gust Speed Precip Events Conditions
12:53 AM 57.9 °F 48.0 °F 70% 30.17 in 10.0 mi NE 3.5 mph - N/A   Mostly Cloudy
1:53 AM 57.0 °F 46.9 °F 69% 30.15 in 10.0 mi ENE 3.5 mph - N/A   Mostly Cloudy
2:53 AM 55.0 °F 48.0 °F 77% 30.12 in 10.0 mi ESE 3.5 mph - N/A   Scattered Clouds
3:53 AM 57.9 °F 48.9 °F 72% 30.09 in 10.0 mi ESE 9.2 mph - N/A   Partly Cloudy
4:53 AM 57.0 °F 48.9 °F 74% 30.11 in 10.0 mi Calm Calm - N/A   Scattered Clouds
5:53 AM 55.0 °F 48.9 °F 80% 30.12 in 10.0 mi ENE 4.6 mph - N/A   Scattered Clouds
6:53 AM 55.0 °F 48.9 °F 80% 30.14 in 10.0 mi Calm Calm - N/A   Mostly Cloudy
7:53 AM 59.0 °F 52.0 °F 78% 30.17 in 10.0 mi NE 5.8 mph - N/A   Overcast
8:53 AM 63.0 °F 53.1 °F 70% 30.17 in 10.0 mi ENE 8.1 mph - N/A   Mostly Cloudy
9:53 AM 66.0 °F 51.1 °F 59% 30.18 in 10.0 mi East 10.4 mph 17.3 mph N/A   Overcast
10:53 AM 68.0 °F 52.0 °F 56% 30.19 in 10.0 mi East 10.4 mph - N/A   Mostly Cloudy
11:53 AM 70.0 °F 52.0 °F 53% 30.18 in 10.0 mi East 10.4 mph - N/A   Mostly Cloudy
12:53 PM 70.0 °F 53.1 °F 55% 30.17 in 10.0 mi ESE 9.2 mph - N/A   Mostly Cloudy
1:53 PM 71.1 °F 53.1 °F 53% 30.15 in 10.0 mi SE 8.1 mph - N/A   Mostly Cloudy
2:53 PM 71.1 °F 53.1 °F 53% 30.13 in 10.0 mi East 10.4 mph - N/A   Mostly Cloudy
3:53 PM 71.1 °F 54.0 °F 55% 30.11 in 10.0 mi East 9.2 mph - N/A   Mostly Cloudy
4:53 PM 71.1 °F 53.1 °F 53% 30.09 in 10.0 mi East 9.2 mph - N/A   Mostly Cloudy
5:53 PM 71.1 °F 54.0 °F 55% 30.08 in 10.0 mi East 10.4 mph - N/A   Scattered Clouds
6:53 PM 69.1 °F 54.0 °F 58% 30.09 in 10.0 mi ESE 9.2 mph - N/A   Partly Cloudy
7:53 PM 66.0 °F 53.1 °F 63% 30.10 in 10.0 mi ESE 4.6 mph - N/A   Partly Cloudy
8:53 PM 64.0 °F 53.1 °F 67% 30.12 in 10.0 mi SE 5.8 mph - N/A   Partly Cloudy
9:53 PM 63.0 °F 54.0 °F 72% 30.13 in 10.0 mi SE 3.5 mph - N/A   Partly Cloudy
10:53 PM 60.1 °F 53.1 °F 78% 30.14 in 10.0 mi Calm Calm - N/A   Clear
11:53 PM 59.0 °F 53.1 °F 81% 30.14 in 10.0 mi Calm Calm - N/A   Clear